Content
SEND FEEDBACK

Daily
Averages
Monthly
Summary
United States of America

BOILING SPRING LAKES, NORTH CAROLINA


Home > North America > United States > North Carolina
Elevation: 20 feet     Latitude: 34 00N     Longitude: 078 01W

WEATHER
 
SELECT A DAY
Number of Records: 136,443;   Date Range: 8/21/01 - 7/29/14
 
SHARE

PRINT THIS DATA

[ ← Previous Day ]
WEATHER ALMANAC - NOVEMBER 1, 2013
[ Next Day → ]
[ °C ]   °F
Weather ElementAverageHighLow
Temperature72.6 °F76.1 °F (10:15 am)68.2 °F (2:15 am)
Dewpoint68.4 °F70.7 °F (10:15 am)65.1 °F (12:35 am)
Humidity86.7 %97 % (2:35 am)77 % (12:35 am)
Barometer29.87 in30.00 in (12:35 am)29.77 in (11:15 pm)
Wind Speed10 mph13.8 mph (10:15 am)
Wind Gust21.9 mph (11:55 pm)
Weather ElementAverage
Visibility7.8 mi
Wind DirectionSSW (208.4 °)

Weather ElementTotal
Precipitation0.23 in
Cooling Degree Days7.2 (Base 65)
Growing Degree Days22.2 (Base 50)
Averaged from 67 records on November 1, 2013
WEATHER CONDITIONS BREAKOUT
WIND DIRECTION BREAKOUT
WEATHER BY HOUR - NOVEMBER 1, 2013
[ °C ]   °F
Local TimeTemperatureDewpointHumidityBarometerVisibilityWind DirectionWind SpeedGust SpeedPrecipitationEventsConditions
12:35 AM72.9 °F65.1 °F77 %30.00 in10.0 miSouth (180°)8.1 mphMostly Cloudy
12:55 AM72.9 °F65.3 °F77 %29.99 in10.0 miSouth (170°)6.9 mphOvercast
1:15 AM72.7 °F65.5 °F78 %29.98 in10.0 miSouth (180°)8.1 mphOvercast
1:35 AM69.8 °F67.1 °F91 %29.99 in4.0 miWSW (250°)10.4 mphDrizzle
1:55 AM68.9 °F67.5 °F95 %30.00 in3.0 miWSW (240°)12.7 mph17.3 mph0.02 inRainRain
2:15 AM68.2 °F66.9 °F96 %29.97 in2.5 miSSE (160°)5.8 mph16.1 mph0.07 inRainLight Rain
2:35 AM68.9 °F68.0 °F97 %29.95 in7.0 miSSE (160°)5.8 mph0.07 inOvercast
2:55 AM68.9 °F67.6 °F96 %29.95 in10.0 miSouth (170°)6.9 mph0.07 inOvercast
3:15 AM69.3 °F67.5 °F94 %29.94 in10.0 miSouth (190°)8.1 mphOvercast
3:35 AM69.8 °F68.0 °F94 %29.93 in10.0 miSouth (190°)9.2 mphOvercast
3:55 AM69.3 °F66.6 °F91 %29.92 in10.0 miSouth (180°)8.1 mphMostly Cloudy
4:15 AM70.0 °F66.9 °F90 %29.91 in10.0 miSouth (180°)8.1 mphMostly Cloudy
4:35 AM70.2 °F67.3 °F91 %29.90 in10.0 miSouth (180°)8.1 mphMostly Cloudy
4:55 AM70.7 °F68.4 °F92 %29.90 in10.0 miSouth (180°)6.9 mphMostly Cloudy
5:15 AM71.1 °F68.9 °F93 %29.89 in10.0 miSouth (190°)12.7 mph16.1 mphOvercast
5:35 AM70.7 °F67.1 °F88 %29.88 in10.0 miSSW (210°)9.2 mph16.1 mphOvercast
5:55 AM70.9 °F66.2 °F85 %29.89 in10.0 miSSW (200°)8.1 mphOvercast
6:15 AM70.9 °F66.2 °F85 %29.90 in10.0 miSouth (190°)9.2 mphOvercast
6:35 AM70.9 °F67.5 °F89 %29.89 in10.0 miSSW (200°)11.5 mph16.1 mphMostly Cloudy
6:55 AM71.2 °F68.4 °F91 %29.89 in10.0 miSSW (200°)10.4 mph16.1 mphScattered Clouds
7:15 AM71.6 °F68.9 °F91 %29.89 in10.0 miSSW (200°)9.2 mphClear
7:35 AM71.4 °F68.9 °F92 %29.89 in7.0 miSSW (210°)8.1 mph17.3 mphClear
7:55 AM70.9 °F68.9 °F93 %29.89 in7.0 miSSW (210°)10.4 mphClear
8:15 AM71.1 °F68.9 °F93 %29.89 in7.0 miSSW (210°)6.9 mphClear
8:35 AM71.1 °F68.9 °F93 %29.90 in5.0 miSSW (210°)6.9 mphClear
8:55 AM71.1 °F69.1 °F93 %29.91 in5.0 miSW (220°)9.2 mphScattered Clouds
9:15 AM72.1 °F70.0 °F93 %29.92 in5.0 miSW (220°)9.2 mphOvercast
9:35 AM72.5 °F70.0 °F92 %29.92 in5.0 miWSW (240°)11.5 mph17.3 mphMostly Cloudy
9:55 AM74.1 °F70.3 °F88 %29.92 in7.0 miSW (230°)11.5 mph18.4 mphScattered Clouds
10:15 AM76.1 °F70.7 °F83 %29.92 in7.0 miSW (230°)13.8 mph18.4 mphClear
10:35 AM74.7 °F69.8 °F85 %29.92 in7.0 miSSW (210°)10.4 mph19.6 mphMostly Cloudy
10:55 AM74.3 °F69.6 °F85 %29.91 in5.0 miSSW (210°)8.1 mph17.3 mphMostly Cloudy
11:15 AM75.7 °F69.8 °F82 %29.91 in7.0 miSW (220°)13.8 mph19.6 mphScattered Clouds
11:35 AM74.3 °F69.1 °F84 %29.90 in7.0 miSW (220°)12.7 mph19.6 mphClear
11:55 AM74.3 °F69.1 °F84 %29.90 in7.0 miSW (220°)12.7 mph17.3 mphClear
12:15 PM74.3 °F69.3 °F84 %29.89 in7.0 miSW (220°)9.2 mphClear
12:35 PM74.3 °F69.1 °F84 %29.88 in7.0 miSW (220°)9.2 mph16.1 mphClear
12:55 PM74.7 °F69.1 °F83 %29.88 in7.0 miSW (220°)12.7 mph20.7 mphClear
1:15 PM74.7 °F69.1 °F83 %29.86 in7.0 miSW (220°)13.8 mph19.6 mphClear
1:35 PM74.3 °F68.9 °F83 %29.84 in7.0 miSW (220°)12.7 mph18.4 mphClear
1:55 PM74.3 °F68.9 °F83 %29.84 in7.0 miSW (220°)11.5 mph17.3 mphClear
2:15 PM74.7 °F68.9 °F82 %29.83 in7.0 miSSW (200°)6.9 mph16.1 mphClear
2:35 PM74.7 °F68.9 °F82 %29.82 in7.0 miSW (220°)10.4 mph17.3 mphClear
2:55 PM76.1 °F68.9 °F78 %29.82 in10.0 miSW (220°)12.7 mph20.7 mphMostly Cloudy
3:15 PM74.3 °F68.5 °F82 %29.82 in7.0 miSW (220°)13.8 mph20.7 mphMostly Cloudy
3:35 PM74.3 °F68.5 °F82 %29.80 in7.0 miSSW (210°)11.5 mph19.6 mphScattered Clouds
3:55 PM74.3 °F68.4 °F82 %29.79 in7.0 miSSW (210°)9.2 mph17.3 mphScattered Clouds
4:15 PM73.6 °F68.2 °F83 %29.79 in7.0 miSSW (210°)9.2 mph17.3 mphScattered Clouds
5:55 PM72.5 °F68.2 °F86 %29.78 in7.0 miSW (220°)10.4 mph18.4 mphScattered Clouds
6:15 PM72.7 °F67.8 °F85 %29.78 in10.0 miSW (230°)12.7 mph18.4 mphScattered Clouds
6:35 PM73.2 °F67.1 °F81 %29.79 in10.0 miSW (220°)11.5 mph20.7 mphMostly Cloudy
6:55 PM73.0 °F67.5 °F83 %29.79 in10.0 miSW (220°)12.7 mph19.6 mphMostly Cloudy
7:15 PM72.9 °F67.8 °F84 %29.79 in10.0 miSSW (210°)11.5 mphScattered Clouds
7:35 PM73.0 °F68.2 °F85 %29.79 in10.0 miSSW (210°)9.2 mph16.1 mphMostly Cloudy
7:55 PM73.0 °F68.5 °F86 %29.79 in7.0 miSSW (210°)9.2 mphMostly Cloudy
8:15 PM72.9 °F68.5 °F86 %29.79 in7.0 miSW (220°)11.5 mph17.3 mphOvercast
8:35 PM73.0 °F68.9 °F87 %29.79 in7.0 miSSW (210°)10.4 mph19.6 mphOvercast
8:55 PM73.2 °F68.9 °F86 %29.78 in7.0 miSSW (210°)10.4 mphMostly Cloudy
9:15 PM73.0 °F69.1 °F87 %29.78 in7.0 miSSW (200°)9.2 mphScattered Clouds
9:35 PM73.0 °F69.1 °F87 %29.78 in7.0 miSSW (200°)10.4 mph17.3 mphMostly Cloudy
9:55 PM73.0 °F69.1 °F87 %29.78 in7.0 miSSW (200°)8.1 mph17.3 mphOvercast
10:15 PM73.4 °F68.9 °F86 %29.78 in7.0 miSW (220°)8.1 mph16.1 mphOvercast
10:35 PM73.4 °F68.5 °F85 %29.78 in7.0 miSSW (210°)8.1 mphOvercast
10:55 PM74.3 °F68.5 °F82 %29.78 in10.0 miSW (220°)12.7 mph19.6 mphLight Drizzle
11:15 PM73.8 °F68.9 °F85 %29.77 in10.0 miSW (220°)10.4 mph16.1 mphOvercast
11:35 PM74.1 °F68.9 °F84 %29.78 in10.0 miSW (220°)13.8 mph19.6 mphOvercast
11:55 PM73.2 °F68.9 °F86 %29.77 in7.0 miWSW (240°)11.5 mph21.9 mphRainRain
Hourly data recorded from KSUT, located miles away from Boiling Spring Lakes, North Carolina







STORIES FROM OUR PARTNERS